Regional Weather Roundup
Issued by NWS

Home | Current Version | Previous Version | Graphics & Text | Print | Product List | Glossary On
Versions: 1 2 3 4 5 6 7 8 9 10 11 12 13 14 15 16 17 18 19 20 21 22 23 24 25 26 27 28 29 30 31 32 33 34 35 36 37 38 39 40 41 42 43 44 45 46 47 48 49 50
000
ASUS43 KLSX 202157
RWRMO

WEATHER SUMMARY FOR MISSOURI
NATIONAL WEATHER SERVICE SPRINGFIELD MO
500 PM CDT THU JUL 20 2017

NOTE: "FAIR" INDICATES FEW OR NO CLOUDS BELOW 12,000 FEET WITH NO
       SIGNIFICANT WEATHER AND/OR OBSTRUCTIONS TO VISIBILITY.
       CURRENT SKY AND/OR WEATHER CONDITIONS ARE NOT AVAILABLE FOR
       CHILLICOTHE AND FARMINGTON.

MOZ001>031-035>038-043-044-053-054-202300-
...NORTHERN AND WESTERN MISSOURI...

CITY           SKY/WX    TMP DP  RH WIND       PRES   REMARKS
KANSAS CTY INT MOSUNNY   96  75  50 S12       29.97F HX 108
LEE`S SUMMIT   MOSUNNY   96  74  48 SW15      29.99F HX 107
ST JOSEPH      SUNNY     94  81  66 S8        29.94F HX 115
CHILLICOTHE      N/A     95  80  61 VRB7      29.97F HX 114

$$
MOZ066>068-077>081-088>096-101>105-202300-
...SOUTHWEST MISSOURI...

CITY           SKY/WX    TMP DP  RH WIND       PRES   REMARKS
SPRINGFIELD    SUNNY     95  69  42 W12       30.05F HX 100
JOPLIN         SUNNY     98  73  44 SW7       30.03F HX 108
BRANSON        MOSUNNY   93  68  43 CALM      30.07F HX  97

$$
MOZ032>034-039>042-045>050-055>058-069>072-202300-
...CENTRAL MISSOURI...

CITY           SKY/WX    TMP DP  RH WIND       PRES   REMARKS
COLUMBIA       NOT AVBL
JEFFERSON CITY MOSUNNY   96  72  45 SW5       29.98F HX 104
ROLLA          SUNNY     94  72  48 S8        30.03F HX 102
WARRENSBURG    SUNNY     95  72  46 SW10      29.99F HX 103

$$
MOZ051-052-059>065-202300-
...EAST CENTRAL MISSOURI...

CITY           SKY/WX    TMP DP  RH WIND       PRES   REMARKS
ST LOUIS INTL  MOSUNNY  101  67  32 VRB7      29.99F HX 106

$$
MOZ072>076-082>087-097>100-106>115-202300-
...SOUTH CENTRAL AND SOUTHEAST MISSOURI...

CITY           SKY/WX    TMP DP  RH WIND       PRES   REMARKS
CAPE GIRARDEAU SUNNY     92  74  55 SW7       30.01F HX 101
POPLAR BLUFF   MOSUNNY   93  76  57 S7        30.01F HX 105
WEST PLAINS    SUNNY     94  68  42 SW9       30.07F HX  98

$$



USA.gov is the U.S. government's official web portal to all federal, state and local government web resources and services.